Weather History for Los Angeles Downtown, CA

Change the Weather History Date:

Wednesday, July 18, 2012

  Actual Average Record
Temperature  
Mean Temperature 70 °F 74 °F  
Max Temperature 79 °F 84 °F 97 °F (1936)
Min Temperature 61 °F 64 °F 53 °F (1884)
Degree Days  
Heating Degree Days 0 0  
Month to date heating degree days 0 0  
Since 1 June heating degree days 0 8  
Since 1 July heating degree days 0 0  
Cooling Degree Days 5 9  
Month to date cooling degree days 89 144  
Year to date cooling degree days 281 432  
Since 1 June cooling degree days 187 278  
Growing Degree Days 20 (Base 50)    
Moisture  
Dew Point 57 °F    
Average Humidity 65    
Maximum Humidity 90    
Minimum Humidity 39    
Precipitation  
Precipitation T in 0.00 in 0.00 in (2014)
Month to date precipitation 0.01 0.01  
Year to date precipitation 4.94 10.62  
Since 1 July precipitation 0.01 0.01  
Sea Level Pressure  
Sea Level Pressure 29.94 in    
Wind  
Wind Speed 1 mph (West)    
Max Wind Speed 9 mph    
Max Gust Speed 14 mph    
Visibility 10 miles    
Events Rain    
T = Trace of Precipitation, MM = Missing Value Source: NWS Daily Summary

Daily Weather History Graph

Daily Weather History Graph

Search for Another Location

Airport:

Trip Planner

Search our weather history database for the weather conditions in past years. The results will help you decide how hot, cold, wet, or windy it might be!

Date:

Astronomy

Jul. 18, 2012 Rise Set
Actual Time 5:55 AM PDT 8:03 PM PDT
Civil Twilight 5:26 AM PDT 8:31 PM PDT
Nautical Twilight 4:52 AM PDT 9:05 PM PDT
Astronomical Twilight 4:15 AM PDT 9:43 PM PDT
Moon 5:32 AM PDT (7/18) 7:39 PM PDT (7/18)
Length of Visible Light 15h 04m
Length of Day
14h 08m
Waning Crescent, 0% of the Moon is Illuminated
Jul 18
Waning Crescent
Jul 18
New
Jul 26
First Quarter
Aug 1
Full
Aug 9
Last Quarter

Hourly Weather History & Observations

Time (PDT) Temp. Dew Point Humidity Pressure Visibility Wind Dir Wind Speed Gust Speed Precip Events Conditions
12:11 AM 62.6 °F 57.2 °F 82% 29.98 in 10.0 mi Calm Calm - N/A   Scattered Clouds
12:47 AM 62.1 °F 57.0 °F 84% 29.97 in 10.0 mi Calm Calm - N/A   Clear
1:47 AM 62.1 °F 57.0 °F 84% 29.97 in 10.0 mi Calm Calm - N/A   Clear
2:47 AM 62.1 °F 57.0 °F 84% 29.95 in 10.0 mi Calm Calm - N/A   Partly Cloudy
3:47 AM 61.0 °F 57.0 °F 87% 29.94 in 10.0 mi Calm Calm - N/A   Clear
4:47 AM 61.0 °F 57.0 °F 87% 29.94 in 10.0 mi Calm Calm - N/A   Clear
5:47 AM 61.0 °F 55.9 °F 83% 29.95 in 10.0 mi Calm Calm - N/A   Clear
6:47 AM 62.1 °F 57.0 °F 84% 29.96 in 10.0 mi West 3.5 mph - N/A   Clear
7:47 AM 64.0 °F 57.0 °F 78% 29.98 in 10.0 mi Calm Calm - N/A   Clear
8:47 AM 66.9 °F 57.0 °F 70% 29.96 in 10.0 mi Calm Calm - N/A   Clear
9:47 AM 70.0 °F 57.0 °F 63% 29.96 in 10.0 mi Calm Calm - N/A   Clear
10:47 AM 75.9 °F 57.0 °F 52% 29.95 in 10.0 mi Calm Calm - N/A   Clear
11:47 AM 75.9 °F 59.0 °F 56% 29.96 in 10.0 mi Variable 3.5 mph - N/A   Clear
12:47 PM 78.1 °F 57.9 °F 50% 29.96 in 10.0 mi West 4.6 mph - N/A   Clear
1:47 PM 75.0 °F 57.0 °F 53% 29.96 in 10.0 mi Variable 3.5 mph - N/A   Clear
2:47 PM 79.0 °F 55.9 °F 45% 29.95 in 10.0 mi Variable 4.6 mph - N/A   Clear
3:47 PM 75.0 °F 57.0 °F 53% 29.94 in 10.0 mi Variable 3.5 mph - 0.00 in Rain Light Rain
4:47 PM 75.0 °F 55.0 °F 50% 29.93 in 10.0 mi Calm Calm - 0.00 in   Clear
5:47 PM 75.9 °F 54.0 °F 46% 29.89 in 10.0 mi Calm Calm - N/A   Clear
6:47 PM 78.1 °F 51.1 °F 39% 29.87 in 10.0 mi Calm Calm - N/A   Clear
7:47 PM 73.9 °F 55.0 °F 52% 29.87 in 10.0 mi Calm Calm - N/A   Clear
8:47 PM 72.0 °F 57.9 °F 61% 29.88 in 10.0 mi Calm Calm - N/A   Clear
9:47 PM 73.0 °F 59.0 °F 61% 29.88 in 10.0 mi Calm Calm - N/A   Partly Cloudy
10:47 PM 70.0 °F 60.1 °F 71% 29.89 in 10.0 mi Calm Calm - N/A   Partly Cloudy
11:47 PM 68.0 °F 60.1 °F 76% 29.89 in 10.0 mi Calm Calm - N/A   Clear